Time,TemperatureF,DewpointF,PressureIn,WindDirection,WindDirectionDegrees,WindSpeedMPH,WindSpeedGustMPH,Humidity,HourlyPrecipIn,Conditions,Clouds,dailyrainin,SoftwareType,DateUTC
2013-05-24 00:00:00,40.0,-99.9,30.26,NNE,20,26.0,-999.0,-999,-99.99,,,-99.99,,2013-05-24 04:00:00,
2013-05-24 00:23:00,40.0,-99.9,30.26,NNE,20,26.0,-999.0,-999,-99.99,,,-99.99,,2013-05-24 04:23:00,
2013-05-24 00:33:00,40.0,-99.9,30.26,NNE,20,26.0,-999.0,-999,-99.99,,,-99.99,,2013-05-24 04:33:00,
2013-05-24 00:42:00,40.0,-99.9,30.26,NNE,20,26.0,-999.0,-999,-99.99,,,-99.99,,2013-05-24 04:42:00,
2013-05-24 00:53:00,40.0,-99.9,30.26,NNE,20,26.0,-999.0,-999,-99.99,,,-99.99,,2013-05-24 04:53:00,
2013-05-24 01:00:00,40.0,-99.9,30.29,North,0,15.0,-999.0,-999,-99.99,,,-99.99,,2013-05-24 05:00:00,
2013-05-24 01:22:00,40.0,-99.9,30.29,North,0,15.0,-999.0,-999,-99.99,,,-99.99,,2013-05-24 05:22:00,
2013-05-24 01:32:00,40.0,-99.9,30.29,North,0,15.0,-999.0,-999,-99.99,,,-99.99,,2013-05-24 05:32:00,
2013-05-24 01:42:00,40.0,-99.9,30.29,North,0,15.0,-999.0,-999,-99.99,,,-99.99,,2013-05-24 05:42:00,
2013-05-24 01:52:00,40.0,-99.9,30.29,North,0,15.0,-999.0,-999,-99.99,,,-99.99,,2013-05-24 05:52:00,
2013-05-24 02:00:00,41.0,-99.9,30.32,NNE,20,23.0,-999.0,-999,-99.99,,,-99.99,,2013-05-24 06:00:00,
2013-05-24 02:22:00,41.0,-99.9,30.32,NNE,20,23.0,-999.0,-999,-99.99,,,-99.99,,2013-05-24 06:22:00,
2013-05-24 02:32:00,41.0,-99.9,30.32,NNE,20,23.0,-999.0,-999,-99.99,,,-99.99,,2013-05-24 06:32:00,
2013-05-24 02:42:00,41.0,-99.9,30.32,NNE,20,23.0,-999.0,-999,-99.99,,,-99.99,,2013-05-24 06:42:00,
2013-05-24 02:52:00,41.0,-99.9,30.32,NNE,20,23.0,-999.0,-999,-99.99,,,-99.99,,2013-05-24 06:52:00,
2013-05-24 03:00:00,39.0,-99.9,30.32,NNE,20,23.0,-999.0,-999,-99.99,,,-99.99,,2013-05-24 07:00:00,
2013-05-24 03:22:00,39.0,-99.9,30.32,NNE,20,23.0,-999.0,-999,-99.99,,,-99.99,,2013-05-24 07:22:00,
2013-05-24 03:32:00,39.0,-99.9,30.32,NNE,20,23.0,-999.0,-999,-99.99,,,-99.99,,2013-05-24 07:32:00,
2013-05-24 03:42:00,39.0,-99.9,30.32,NNE,20,23.0,-999.0,-999,-99.99,,,-99.99,,2013-05-24 07:42:00,
2013-05-24 03:52:00,39.0,-99.9,30.32,NNE,20,23.0,-999.0,-999,-99.99,,,-99.99,,2013-05-24 07:52:00,
2013-05-24 04:00:00,39.0,-99.9,30.35,NNE,20,17.0,-999.0,-999,-99.99,,,-99.99,,2013-05-24 08:00:00,
2013-05-24 04:22:00,39.0,-99.9,30.35,NNE,20,17.0,-999.0,-999,-99.99,,,-99.99,,2013-05-24 08:22:00,
2013-05-24 04:33:00,39.0,-99.9,30.35,NNE,20,17.0,-999.0,-999,-99.99,,,-99.99,,2013-05-24 08:33:00,
2013-05-24 04:42:00,39.0,-99.9,30.35,NNE,20,17.0,-999.0,-999,-99.99,,,-99.99,,2013-05-24 08:42:00,
2013-05-24 04:52:00,39.0,-99.9,30.35,NNE,20,17.0,-999.0,-999,-99.99,,,-99.99,,2013-05-24 08:52:00,
2013-05-24 05:00:00,39.0,-99.9,30.37,North,360,16.0,-999.0,-999,-99.99,,,-99.99,,2013-05-24 09:00:00,
2013-05-24 05:22:00,39.0,-99.9,30.37,North,360,16.0,-999.0,-999,-99.99,,,-99.99,,2013-05-24 09:22:00,
2013-05-24 05:33:00,39.0,-99.9,30.37,North,360,16.0,-999.0,-999,-99.99,,,-99.99,,2013-05-24 09:33:00,
2013-05-24 05:42:00,39.0,-99.9,30.37,North,360,16.0,-999.0,-999,-99.99,,,-99.99,,2013-05-24 09:42:00,
2013-05-24 05:53:00,39.0,-99.9,30.37,North,360,16.0,-999.0,-999,-99.99,,,-99.99,,2013-05-24 09:53:00,
2013-05-24 06:00:00,39.0,-99.9,30.39,North,0,18.0,-999.0,-999,-99.99,,,-99.99,,2013-05-24 10:00:00,
2013-05-24 06:23:00,39.0,-99.9,30.39,North,0,18.0,-999.0,-999,-99.99,,,-99.99,,2013-05-24 10:23:00,
2013-05-24 06:33:00,39.0,-99.9,30.39,North,0,18.0,-999.0,-999,-99.99,,,-99.99,,2013-05-24 10:33:00,
2013-05-24 06:42:00,39.0,-99.9,30.39,North,0,18.0,-999.0,-999,-99.99,,,-99.99,,2013-05-24 10:42:00,
2013-05-24 06:53:00,39.0,-99.9,30.39,North,0,18.0,-999.0,-999,-99.99,,,-99.99,,2013-05-24 10:53:00,
2013-05-24 07:00:00,38.0,-99.9,30.42,NNW,340,16.0,-999.0,-999,-99.99,,,-99.99,,2013-05-24 11:00:00,
2013-05-24 07:23:00,38.0,-99.9,30.42,NNW,340,16.0,-999.0,-999,-99.99,,,-99.99,,2013-05-24 11:23:00,
2013-05-24 07:32:00,38.0,-99.9,30.42,NNW,340,16.0,-999.0,-999,-99.99,,,-99.99,,2013-05-24 11:32:00,
2013-05-24 07:42:00,38.0,-99.9,30.42,NNW,340,16.0,-999.0,-999,-99.99,,,-99.99,,2013-05-24 11:42:00,
2013-05-24 07:52:00,38.0,-99.9,30.42,NNW,340,16.0,-999.0,-999,-99.99,,,-99.99,,2013-05-24 11:52:00,
2013-05-24 11:00:00,39.0,-99.9,30.48,NNW,340,10.0,-999.0,-999,-99.99,,,-99.99,,2013-05-24 15:00:00,
2013-05-24 11:43:00,39.0,-99.9,30.48,NNW,340,10.0,-999.0,-999,-99.99,,,-99.99,,2013-05-24 15:43:00,
2013-05-24 11:53:00,39.0,-99.9,30.48,NNW,340,10.0,-999.0,-999,-99.99,,,-99.99,,2013-05-24 15:53:00,
2013-05-24 12:00:00,39.0,-99.9,30.49,NNW,340,14.0,-999.0,-999,-99.99,,,-99.99,,2013-05-24 16:00:00,
2013-05-24 12:22:00,39.0,-99.9,30.49,NNW,340,14.0,-999.0,-999,-99.99,,,-99.99,,2013-05-24 16:22:00,
2013-05-24 12:33:00,39.0,-99.9,30.49,NNW,340,14.0,-999.0,-999,-99.99,,,-99.99,,2013-05-24 16:33:00,
2013-05-24 12:42:00,39.0,-99.9,30.49,NNW,340,14.0,-999.0,-999,-99.99,,,-99.99,,2013-05-24 16:42:00,
2013-05-24 12:52:00,39.0,-99.9,30.49,NNW,340,14.0,-999.0,-999,-99.99,,,-99.99,,2013-05-24 16:52:00,
2013-05-24 13:00:00,40.0,-99.9,30.50,NNW,330,14.0,-999.0,-999,-99.99,,,-99.99,,2013-05-24 17:00:00,
2013-05-24 13:32:00,40.0,-99.9,30.50,NNW,330,14.0,-999.0,-999,-99.99,,,-99.99,,2013-05-24 17:32:00,
2013-05-24 13:42:00,40.0,-99.9,30.50,NNW,330,14.0,-999.0,-999,-99.99,,,-99.99,,2013-05-24 17:42:00,
2013-05-24 13:52:00,40.0,-99.9,30.50,NNW,330,14.0,-999.0,-999,-99.99,,,-99.99,,2013-05-24 17:52:00,
2013-05-24 14:00:00,40.0,-99.9,30.47,North,350,14.0,-999.0,-999,-99.99,,,-99.99,,2013-05-24 18:00:00,
2013-05-24 14:42:00,40.0,-99.9,30.47,North,350,14.0,-999.0,-999,-99.99,,,-99.99,,2013-05-24 18:42:00,
2013-05-24 14:52:00,40.0,-99.9,30.47,North,350,14.0,-999.0,-999,-99.99,,,-99.99,,2013-05-24 18:52:00,
2013-05-24 15:00:00,40.0,-99.9,30.47,NNW,340,13.0,-999.0,-999,-99.99,,,-99.99,,2013-05-24 19:00:00,
2013-05-24 15:22:00,40.0,-99.9,30.47,NNW,340,13.0,-999.0,-999,-99.99,,,-99.99,,2013-05-24 19:22:00,
2013-05-24 15:32:00,40.0,-99.9,30.47,NNW,340,13.0,-999.0,-999,-99.99,,,-99.99,,2013-05-24 19:32:00,
2013-05-24 15:42:00,40.0,-99.9,30.47,NNW,340,13.0,-999.0,-999,-99.99,,,-99.99,,2013-05-24 19:42:00,
2013-05-24 15:52:00,40.0,-99.9,30.47,NNW,340,13.0,-999.0,-999,-99.99,,,-99.99,,2013-05-24 19:52:00,
2013-05-24 16:00:00,40.0,-99.9,30.45,North,350,15.0,-999.0,-999,-99.99,,,-99.99,,2013-05-24 20:00:00,
2013-05-24 16:22:00,40.0,-99.9,30.45,North,350,15.0,-999.0,-999,-99.99,,,-99.99,,2013-05-24 20:22:00,
2013-05-24 16:32:00,40.0,-99.9,30.45,North,350,15.0,-999.0,-999,-99.99,,,-99.99,,2013-05-24 20:32:00,
2013-05-24 16:42:00,40.0,-99.9,30.45,North,350,15.0,-999.0,-999,-99.99,,,-99.99,,2013-05-24 20:42:00,
2013-05-24 16:52:00,40.0,-99.9,30.45,North,350,15.0,-999.0,-999,-99.99,,,-99.99,,2013-05-24 20:52:00,
2013-05-24 17:00:00,41.0,-99.9,30.44,North,360,10.0,-999.0,-999,-99.99,,,-99.99,,2013-05-24 21:00:00,
2013-05-24 17:22:00,41.0,-99.9,30.44,North,360,10.0,-999.0,-999,-99.99,,,-99.99,,2013-05-24 21:22:00,
2013-05-24 17:33:00,41.0,-99.9,30.44,North,360,10.0,-999.0,-999,-99.99,,,-99.99,,2013-05-24 21:33:00,
2013-05-24 17:43:00,41.0,-99.9,30.44,North,360,10.0,-999.0,-999,-99.99,,,-99.99,,2013-05-24 21:43:00,
2013-05-24 17:53:00,41.0,-99.9,30.44,North,360,10.0,-999.0,-999,-99.99,,,-99.99,,2013-05-24 21:53:00,
2013-05-24 18:00:00,41.0,-99.9,30.42,North,350,11.0,-999.0,-999,-99.99,,,-99.99,,2013-05-24 22:00:00,
2013-05-24 18:22:00,41.0,-99.9,30.42,North,350,11.0,-999.0,-999,-99.99,,,-99.99,,2013-05-24 22:22:00,
2013-05-24 18:33:00,41.0,-99.9,30.42,North,350,11.0,-999.0,-999,-99.99,,,-99.99,,2013-05-24 22:33:00,
2013-05-24 18:42:00,41.0,-99.9,30.42,North,350,11.0,-999.0,-999,-99.99,,,-99.99,,2013-05-24 22:42:00,
2013-05-24 18:52:00,41.0,-99.9,30.42,North,350,11.0,-999.0,-999,-99.99,,,-99.99,,2013-05-24 22:52:00,